Tracking 31011 objects as of 12-Jul-2025
HD Live streaming from Space Station
objects crossing your sky now

STARLINK-11379

Track STARLINK-11379 now!
10-day predictions
STARLINK-11379 is classified as:


NORAD ID: 62089
Int'l Code: 2024-220B
Perigee: 362.3 km
Apogee: 364.6 km
Inclination: 43.0 °
Period: 91.7 minutes
Semi major axis: 6734 km
RCS: Unknown
Launch date: November 25, 2024
Source: United States (US)
Launch site: AIR FORCE EASTERN TEST RANGE (AFETR)
Your satellite tracking list
Your tracking list is empty




NASA's NSSDC Master Catalog

Two Line Element Set (TLE):
1 62089U 24220B   25193.62419908  .00250281  00000-0  18912-2 0  9995
2 62089  42.9991  50.4201 0001667 272.3274  87.7403 15.70898378 37195
Source of the keplerian elements: AFSPC